HUANJING 1B (HJ-1B)

Last updated on Mon Jun 22 2026 00:02:51 GMT+0000 (Coordinated Universal Time)

1 33321U 08041B 26172.52016529 .00000692 00000+0 89798-4 0 9994 2 33321 97.6522 161.3498 0036434 166.7610 193.4570 14.83321897959057
UTC large
Height (km)
Speed (km/s)
/
Latitude / Longitude
Inclination (degrees)
Orbital Period (minutes)
Azimuth
Elevation
Range (km)
Doppler Factor

Next 0 passes for location: London (51.5072 / 0.1276)

No passes found over London.
HUANJING 1B (HJ-1B)